Terminal Aerodrome Forecast
Issued by NWS Wichita, KS

Home | Current Version | Previous Version | Text Only | Print | Product List | Glossary On
Versions: 1 2 3 4 5 6 7 8 9 10 11 12 13 14 15
000
FTUS43 KICT 060520
TAFICT
TAF
KICT 060520Z 0606/0706 13017KT 6SM -RA SCT015 OVC050
      TEMPO 0606/0609 3SM +RA OVC013
     FM060900 17013KT 2SM +RA OVC008
     FM061500 17013KT 5SM RA OVC013=

USA.gov is the U.S. government's official web portal to all federal, state and local government web resources and services.